Ralph Wien Memorial Airport
PAOT : now visible

Airfield :











YOU CAN JOIN US ON...

 
LOGIN :

Register | Disclaimer

   EN    FR    IT 

 









Legend :    VFR   Marginal VFR   IFR   Intensive IFR   Very Intensive IFR
Visi :
Ceiling :
>= 8 km
>= 3000ft
5 to 8 km
1000 to 3000 ft
1500m to 5 km
500 to 1000 ft
800 to 1500m
200 to 500 ft
< 800m
< 200 ft
Symbols :   Thunderstorms  Fog  Heavy snow  Heavy precipitations  Wind > 20 kt






- Airport Elevation : 14 ft
- IATA code : OTZ


PAOT - Ralph Wien Memorial

CURRENT METAR :
  • 250653Z 05005KT 10SM OVC060 M02/M03 A3001 RMK AO2 SLP161 T10171028 $

EXPIRED METARs :
  • 250553Z 05005KT 10SM FEW027 OVC060 M02/M03 A3001 RMK AO2 SLP161 T10171033 11006 21017 51003 $
  • 250533Z 06004KT 10SM SCT026 OVC065 M02/M03 A3001 RMK AO2 T10171033 $
  • 250453Z 07003KT 10SM OVC025 M01/M03 A3000 RMK AO2 SLP160 T10111028 $

TAF PAOT
Valid from the 25 at 06:00 until the 26 at 06:00 UTC


250524Z 2506/2606 07010KT P6SM OVC025
FM252100 07009KT P6SM BKN040
PAZA FIR / North America



MET'MAP, your aeronautical weather chart ! - Copyright ORBIFLY December 2007 - Disclaimer

ORBIFLY MET'MAP TEAM :

Programming & Development : Alexandra Zaïnal
Concept & original design : Baudouin d'Aumeries
Assistance for programming : Marc-Olivier Méhu
Technical & hardware support : Manuel Goepfert

Contact : metmap@orbifly.com




SOURCES & CREDITS :

   NOAA       Earth
Advisory